Change the Weather History Date:

Saturday, February 2, 2013

  Actual Average Record
Temperature  
Mean Temperature 39 °F 32 °F  
Max Temperature 57 °F 46 °F 71 °F (1962)
Min Temperature 20 °F 18 °F -14 °F (1985)
Degree Days  
Heating Degree Days 26 33  
Month to date heating degree days 54 66  
Since 1 July heating degree days 2999 3323  
Cooling Degree Days 0 0  
Month to date cooling degree days 0 0  
Year to date cooling degree days 0 0  
Moisture  
Dew Point 15 °F    
Average Humidity 48    
Maximum Humidity 77    
Minimum Humidity 18    
Precipitation  
Precipitation 0.00 in 0.01 in 0.11 in (2003)
Month to date precipitation 0.00 0.02  
Year to date precipitation 0.02 0.31  
Sea Level Pressure  
Sea Level Pressure 30.28 in    
Wind  
Wind Speed 6 mph (WSW)    
Max Wind Speed 15 mph    
Max Gust Speed 16 mph    
Visibility 10 miles    
Events      
T = Trace of Precipitation, MM = Missing Value Source: NWS Daily Summary

Daily Weather History Graph

Daily Weather History Graph

Search for Another Location

Airport or City:

Trip Planner

Search our weather history database for the weather conditions in past years. The results will help you decide how hot, cold, wet, or windy it might be!

Date:

Astronomy

Feb. 02, 2013 Rise Set
Actual Time 6:57 AM MST 5:18 PM MST
Civil Twilight 6:29 AM MST 5:46 PM MST
Nautical Twilight 5:58 AM MST 6:17 PM MST
Astronomical Twilight 5:27 AM MST 6:48 PM MST
Moon No Moon Rise 10:16 AM MST (2/2)
Length of Visible Light 11h 16m
Length of Day
10h 21m
Waning Gibbous, 59% of the Moon is Illuminated
Feb 2
Waning Gibbous
Feb 3
Last Quarter
Feb 10
New
Feb 17
First Quarter
Feb 25
Full

Hourly Weather History & Observations

Time (MST) Temp. Windchill Dew Point Humidity Pressure Visibility Wind Dir Wind Speed Gust Speed Precip Events Conditions
12:53 AM 32.0 °F - 19.9 °F 61% 30.21 in 10.0 mi Calm Calm - N/A   Clear
1:53 AM 30.9 °F - 19.9 °F 64% 30.22 in 10.0 mi Calm Calm - N/A   Clear
2:53 AM 26.1 °F 15.6 °F 15.1 °F 63% 30.25 in 10.0 mi WSW 11.5 mph - N/A   Clear
3:53 AM 25.0 °F 14.2 °F 15.1 °F 66% 30.28 in 10.0 mi West 11.5 mph - N/A   Clear
4:53 AM 25.0 °F 19.3 °F 15.1 °F 66% 30.29 in 10.0 mi WSW 4.6 mph - N/A   Clear
5:53 AM 24.1 °F 15.2 °F 15.1 °F 69% 30.30 in 10.0 mi WSW 8.1 mph - N/A   Clear
6:53 AM 23.0 °F 15.8 °F 14.0 °F 68% 30.35 in 10.0 mi WSW 5.8 mph - N/A   Clear
7:53 AM 21.9 °F 14.5 °F 15.1 °F 75% 30.38 in 10.0 mi West 5.8 mph - N/A   Clear
8:53 AM 30.0 °F 25.2 °F 17.1 °F 59% 30.38 in 10.0 mi West 4.6 mph - N/A   Clear
9:53 AM 37.0 °F 31.6 °F 18.0 °F 46% 30.36 in 10.0 mi West 6.9 mph - N/A   Clear
10:53 AM 43.0 °F 41.3 °F 19.9 °F 40% 30.33 in 10.0 mi SSW 3.5 mph - N/A   Clear
11:53 AM 50.0 °F - 21.0 °F 32% 30.27 in 10.0 mi SSE 11.5 mph - N/A   Clear
12:53 PM 53.1 °F - 18.0 °F 25% 30.23 in 10.0 mi South 9.2 mph - N/A   Clear
1:53 PM 55.0 °F - 16.0 °F 22% 30.20 in 10.0 mi SSW 10.4 mph - N/A   Clear
2:53 PM 55.9 °F - 14.0 °F 19% 30.20 in 10.0 mi SW 5.8 mph - N/A   Clear
3:53 PM 55.9 °F - 12.9 °F 18% 30.19 in 10.0 mi SSW 3.5 mph - N/A   Clear
4:53 PM 50.0 °F - 15.1 °F 25% 30.21 in 10.0 mi East 6.9 mph - N/A   Clear
5:53 PM 43.0 °F 38.2 °F 12.9 °F 30% 30.25 in 10.0 mi East 8.1 mph - N/A   Clear
6:53 PM 42.1 °F 37.7 °F 12.0 °F 29% 30.27 in 10.0 mi ENE 6.9 mph - N/A   Clear
7:53 PM 37.9 °F 32.7 °F 10.9 °F 33% 30.30 in 10.0 mi NNE 6.9 mph - N/A   Clear
8:53 PM 34.0 °F - 12.0 °F 40% 30.30 in 10.0 mi Calm Calm - N/A   Clear
9:53 PM 33.1 °F 26.9 °F 12.0 °F 42% 30.29 in 10.0 mi North 6.9 mph - N/A   Clear
10:53 PM 34.0 °F 29.8 °F 12.9 °F 42% 30.29 in 10.0 mi NW 4.6 mph - N/A   Clear
11:53 PM 28.9 °F 21.9 °F 14.0 °F 54% 30.27 in 10.0 mi West 6.9 mph - N/A   Clear